Location: Cheching
(60.0667°N, 164.2167°W)
Time: 01:50:28
(UTC+00:00)

DX 1 - Pass Details

Date: 25 January 2021
Orbit: 618 x 631 km, 98.5° (Epoch: 07 March)

Event Time Altitude Azimuth Distance (km) Brightness Sun altitude
Exits shadow 06:54:59 25° 225° (SW) 1,264 ? -29.4°
Drops below altitude 10° 06:56:52 10° 217° (SW) 1,988 ? -29.6°
Sets 06:59:04 0° 213° (SSW) 2,890 ? -29.9°
